Погода в Колаке

Австралия     38°20′22″S   143°35′32″E
темп.,
°C
ветер,
м/с
пор.,
м/с
влажн.,
%
обл.,
%
осадки,
мм/ч
давл.,
гПа
погр.,
м
20 апреля, вт
вт2001:00+14сз6147396 0.1 1011658
04:00+12сз614815 0.1 1010576
07:00+12сз71480100 0.0 1009715
10:00+13зюз4684100 1.0 1009762
13:00+11ююз5986100 5.3 1010802
16:00+11ююз577397 5.8 1011990
19:00+9ю5108587 0.8 1014739
22:00+7ю388577 1.0 1016336
21 апреля, ср
ср2101:00+6ююз36855 0.0 1016203
04:00+5ююз358680 0.1 1017231
07:00+7юз237823 0.1 1017100
10:00+11зюз345680 0.1 1018970
13:00+13зсз454466 0.0 10161733
16:00+13юз564815 0.0 10151481
19:00+10зсз366095 0.0 1015214
22:00+11зсз51158100 0.0 1015672
22 апреля, чт
чт2201:00+11зсз61170100 0.0 1013523
04:00+10зсз6138045 0.0 1012574
07:00+10зсз6119077 0.8 1013571
10:00+12з6977100 1.2 1014922
13:00+14з7106798 0.3 10131386
16:00+14з51066100 0.4 10131299
19:00+12з51082100 0.3 1015662
22:00+11зсз51189100 0.5 1015384
23 апреля, пт
пт2301:00+11з5108797 0.3 1015562
04:00+11з4108999 0.6 1015473
07:00+10з3690100 0.2 1017183
10:00+12з488326 0.4 1019586
13:00+15зюз5761100 0.1 10181409
16:00+15зюз576116 0.3 10191282
19:00+12юз378214 0.1 1021351
22:00+10з2487100 0.1 102292
24 апреля, сб
сб2401:00+12з3572100 0.0 1022143
04:00+11з3677100 0.1 1022231
07:00+11з3776100 0.1 1023233
10:00+15юз47696 0.2 1025935
13:00+16юз565795 0.2 10241491
16:00+15юз565557 0.3 10251466
19:00+10ююз358714 0.0 1028164
22:00+9ю23915 0.0 102964